[[{"header":{"parameterUnit":"m.s-1","parameterCategory":1,"la1":30.2991,"la2":30.254,"lo1":-89.0895,"lo2":-89.0444,"dy":0.0017,"dx":0.0017,"nx":28,"ny":28,"refTime":"2025-09-09T03:00:00:Z","depth":0,"parameterNumber":2,"parameterNumberName":"U-component_of_WINDS"},"data":[0,0,0,0,0,0,0,0,0,0,0,0,0,0,0,0,0,0,0,0,0,0,0,0,0,0,0,0,0,0,0,0,0,0,0,0,0,0,0,0,0,0,0,0,0,0,0,0,0,0,0,0,0,0,0,0,0,0,-3.7684,-3.7685,0,-3.7713,-3.7713,-3.7714,-3.7629,-3.7626,-3.7624,-3.7621,-3.7655,-3.7658,-3.7661,0,0,0,0,0,0,0,0,0,0,0,0,0,-3.7561,-3.7564,-3.7684,-3.7685,-3.7685,-3.7713,-3.7713,-3.7714,-3.7629,-3.7626,-3.7623,-3.762,-3.7653,-3.7657,-3.7661,0,0,0,0,0,0,0,0,0,0,0,0,0,-3.7605,-3.7565,-3.7684,-3.7646,-3.7643,-3.7713,-3.7713,-3.7714,-3.763,-3.7626,-3.7622,-3.7618,-3.7652,-3.7657,-3.7662,-3.7771,0,0,-3.7677,-3.7679,0,0,0,0,0,0,0,0,-3.7603,-3.761,-3.7651,-3.7649,-3.7645,-3.7663,-3.7682,-3.7733,-3.7631,-3.7635,-3.7621,-3.7617,-3.7661,-3.7665,-3.7679,-3.7773,-3.7774,-3.7678,-3.7681,-3.7683,-3.7684,0,0,0,0,0,0,0,-3.76,-3.7608,-3.7696,-3.7652,-3.7649,-3.7629,-3.7631,-3.7691,-3.767,-3.7634,-3.7628,-3.7633,-3.7659,-3.7674,-3.7679,-3.7775,-3.7677,-3.7682,-3.7685,-3.7687,-3.7963,-3.7967,0,0,0,0,0,0,-3.7601,-3.7606,-3.7695,-3.7697,-3.7614,-3.7635,-3.7637,-3.7662,-3.7669,-3.7666,-3.7636,-3.7629,-3.7668,-3.7673,-3.768,-3.7811,-3.7683,-3.7687,-3.769,-3.7959,-3.7964,-3.7969,0,0,0,0,0,0,-3.7599,-3.761,-3.7694,-3.765,-3.7659,-3.7641,-3.767,-3.7664,-3.768,-3.767,-3.7666,-3.7656,-3.7665,-3.7673,-3.775,-3.781,-3.769,-3.7694,-3.7953,-3.796,-3.7966,-3.8071,0,0,0,0,0,0,-3.7596,-3.7609,-3.7649,-3.7651,-3.7662,-3.7761,-3.7673,-3.7668,-3.7688,-3.7679,-3.7688,-3.7685,-3.7662,-3.7743,-3.7755,-3.7815,-3.7698,-3.7948,-3.7956,-3.7964,-3.8062,-3.8081,-3.8096,0,0,0,0,0,-3.7592,-3.7678,-3.7652,-3.7663,-3.7711,-3.7765,-3.7771,-3.7742,-3.7693,-3.7735,-3.7729,-3.7685,-3.7802,-3.7751,-3.7764,-3.7827,-3.7944,-3.7954,-3.7964,-3.8055,-3.8077,-3.8096,0,0,0,0,0,0,-3.7684,-3.7677,-3.7648,-3.7737,-3.7753,-3.775,-3.7801,-3.7766,-3.7796,-3.7786,-3.775,-3.7752,-3.7837,-3.7839,-3.7783,-3.7935,-3.7865,-3.7878,-3.793,-3.7951,-3.7968,-3.7966,-3.7702,0,0,0,0,0,-3.7715,-3.7758,-3.775,-3.783,-3.7839,-3.7819,-3.7841,-3.7818,-3.7832,-3.7839,-3.7838,-3.7855,-3.7896,-3.7923,-3.796,-3.8062,-3.8065,-3.8112,-3.8129,-3.8143,-3.8155,-3.8212,-3.8234,-3.8001,-3.8001,-3.8,0,0,-3.7779,-3.7781,-3.781,-3.7849,-3.7857,-3.7905,-3.7825,-3.7878,-3.7913,-3.7847,-3.7919,-3.792,-3.7937,-3.8028,-3.8068,-3.8032,-3.822,-3.8155,-3.8167,-3.8171,-3.8225,-3.8247,-3.8267,-3.8007,-3.8006,-3.8005,0,0,-3.792,-3.7925,-3.7993,-3.8004,-3.8018,-3.8005,-3.8021,-3.8025,-3.8023,-3.8095,-3.8047,-3.809,-3.816,-3.8175,-3.8191,-3.8342,-3.8304,-3.8355,-3.8444,-3.85,-3.8518,-3.8535,-3.8591,-3.8611,-3.8366,-3.8367,-3.8367,0,-3.7999,-3.8067,-3.8033,-3.809,-3.8109,-3.8051,-3.8121,-3.8133,-3.816,-3.8176,-3.8135,-3.8224,-3.8231,-3.8326,-3.8363,-3.8378,-3.8398,-3.8354,-3.8518,-3.8534,-3.8549,-3.8602,-3.8623,-3.8373,-3.8372,-3.8371,-3.8371,0,-3.8163,-3.8212,-3.8265,-3.8292,-3.8317,-3.8381,-3.8358,-3.8389,-3.8364,-3.8356,-3.8432,-3.8438,-3.8477,-3.8497,-3.8473,-3.859,-3.8568,-3.8524,-3.8453,-3.8578,-3.8627,-3.8647,-3.8382,-3.8379,-3.8378,-3.8376,0,0,-3.8363,-3.8371,-3.8392,-3.8404,-3.8417,-3.8455,-3.8517,-3.8553,-3.8581,-3.8602,-3.8655,-3.8717,-3.8677,-3.8696,-3.8674,-3.8723,-3.8845,-3.8673,-3.8673,-3.8707,-3.8978,-3.9012,-3.9036,-3.882,-3.8823,-3.8826,-3.8977,0,-3.8504,-3.8609,-3.8581,-3.8687,-3.8733,-3.8679,-3.8734,-3.8749,-3.8744,-3.8783,-3.8778,-3.8823,-3.8765,-3.8777,-3.8823,-3.882,-3.8899,-3.8809,-3.8871,-3.8874,-3.887,-3.9061,-3.9097,-3.9239,-3.8996,-3.8999,-3.9001,0,-3.8682,-3.871,-3.882,-3.8827,-3.8846,-3.8895,-3.8928,-3.8966,-3.8983,-3.8976,-3.8999,-3.8967,-3.9031,-3.896,-3.9049,-3.8988,-3.9012,-3.9015,-3.902,-3.9026,-3.8946,-3.9074,-3.9283,-3.9305,-3.9031,-3.9029,-3.9026,0,-3.8819,-3.8884,-3.8959,-3.8971,-3.8981,-3.9018,-3.9024,-3.9037,-3.9062,-3.9091,-3.9108,-3.9145,-3.9166,-3.9196,-3.9177,-3.9126,-3.9271,-3.9197,-3.9269,-3.927,-3.9303,-3.9301,-3.952,-3.9316,-3.9315,-3.9315,-3.9315,0,-3.898,-3.905,-3.9021,-3.9067,-3.9145,-3.9114,-3.9193,-3.9193,-3.9206,-3.9253,-3.9209,-3.9255,-3.9225,-3.927,-3.9255,-3.9333,-3.9342,-3.934,-3.9336,-3.9345,-3.9346,-3.9362,-3.9352,-3.9321,-3.9319,-3.9318,-3.9317,0,-3.9147,-3.913,-3.9208,-3.9212,-3.9215,-3.9273,-3.9277,-3.9321,-3.9313,-3.9374,-3.9386,-3.9374,-3.9424,-3.9408,-3.9461,-3.9451,-3.9552,-3.9533,-3.9546,-3.9542,-3.9616,-3.961,-3.9854,-3.9886,-3.9659,-3.9661,-3.9663,0,-3.9251,-3.9304,-3.9314,-3.9342,-3.9351,-3.9397,-3.9422,-3.9395,-3.9424,-3.9449,-3.9491,-3.9537,-3.9572,-3.9655,-3.9653,-3.9694,-3.9678,-3.9761,-3.9684,-3.9693,-3.9682,-3.968,-3.9687,-3.9777,-3.9779,-3.9781,-3.9783,0,-3.944,-3.9429,-3.9467,-3.9503,-3.9534,-3.9561,-3.9584,-3.961,-3.9585,-3.962,-3.967,-3.9697,-3.9753,-3.98,-3.9838,-3.9847,-3.9813,-3.9807,-3.9827,-3.9837,-3.9843,-3.9844,-3.9589,-3.9802,-3.98,-3.9799,-3.9798,-3.9797,-3.958,-3.9625,-3.964,-3.9684,-3.9699,-3.9722,-3.9765,-3.9763,-3.9804,-3.9846,-3.9828,-3.9887,-3.9906,-3.9953,-3.9967,-4.0015,-3.9983,-4.0011,-4.0018,-4.0026,-4.0036,-3.9835,-4.0021,-4.0021,-4.002,-4.002,-4.0019,0,-3.9768,-3.9775,-3.9816,-3.985,-3.9886,-3.9849,-3.9873,-3.9906,-3.9958,-3.9978,-4.0014,-4.0074,-4.012,-4.0122,-4.0166,-4.0204,-4.019,-4.0217,-4.0215,-4.0218,-4.0061,-4.004,-4.0228,-4.0228,-4.0228,-4.0228,-4.0228,-4.0228,-3.987,-3.9945,-3.9937,-4.0021,-4.0028,-4.0085,-4.0103,-4.0125,-4.0141,-4.0209,-4.0248,-4.0248,-4.0262,-4.0307,-4.0349,-4.0349,-4.0368,-4.0402,-4.0396,-4.0249,-4.0229,-4.0209,-4.019,-4.0406,-4.0406,-4.055,-4.0551,-4.0552]},{"header":{"parameterUnit":"m.s-1","parameterCategory":1,"la1":30.2991,"la2":30.254,"lo1":-89.0895,"lo2":-89.0444,"dy":0.0017,"dx":0.0017,"nx":28,"ny":28,"refTime":"2025-09-09T03:00:00:Z","depth":0,"parameterNumber":3,"parameterNumberName":"V-component_of_WINDS"},"data":[0,0,0,0,0,0,0,0,0,0,0,0,0,0,0,0,0,0,0,0,0,0,0,0,0,0,0,0,0,0,0,0,0,0,0,0,0,0,0,0,0,0,0,0,0,0,0,0,0,0,0,0,0,0,0,0,0,0,-0.1978,-0.1977,0,-0.1925,-0.1924,-0.1924,-0.1865,-0.1864,-0.1864,-0.1863,-0.1811,-0.181,-0.181,0,0,0,0,0,0,0,0,0,0,0,0,0,-0.2031,-0.2031,-0.1978,-0.1977,-0.1976,-0.1925,-0.1924,-0.1923,-0.1865,-0.1864,-0.1863,-0.1862,-0.1811,-0.181,-0.1809,0,0,0,0,0,0,0,0,0,0,0,0,0,-0.1996,-0.203,-0.1978,-0.1941,-0.1937,-0.1925,-0.1924,-0.1923,-0.1866,-0.1864,-0.1863,-0.1862,-0.1811,-0.181,-0.1809,-0.1829,0,0,-0.1807,-0.1806,0,0,0,0,0,0,0,0,-0.1998,-0.1994,-0.1947,-0.1944,-0.1939,-0.19,-0.1924,-0.1892,-0.1866,-0.1893,-0.1863,-0.1861,-0.1842,-0.1838,-0.1831,-0.1827,-0.1825,-0.1807,-0.1806,-0.1806,-0.1805,0,0,0,0,0,0,0,-0.2001,-0.1996,-0.1957,-0.1947,-0.1942,-0.1928,-0.1922,-0.1917,-0.1875,-0.1891,-0.1886,-0.1881,-0.1839,-0.1832,-0.1829,-0.1824,-0.1807,-0.1806,-0.1805,-0.1805,-0.1835,-0.1836,0,0,0,0,0,0,-0.2008,-0.1999,-0.1958,-0.1955,-0.1966,-0.1928,-0.1921,-0.1914,-0.1875,-0.1868,-0.1882,-0.1878,-0.1834,-0.1831,-0.1827,-0.185,-0.1806,-0.1805,-0.1804,-0.1834,-0.1835,-0.1837,0,0,0,0,0,0,-0.201,-0.2005,-0.1961,-0.1976,-0.1969,-0.1929,-0.1921,-0.1914,-0.1907,-0.1868,-0.1861,-0.1882,-0.1833,-0.1829,-0.183,-0.1847,-0.1804,-0.1804,-0.1832,-0.1834,-0.1836,-0.1894,0,0,0,0,0,0,-0.2012,-0.2006,-0.2013,-0.1976,-0.1968,-0.1963,-0.1922,-0.1914,-0.1905,-0.19,-0.1867,-0.186,-0.1832,-0.1831,-0.1829,-0.1845,-0.1803,-0.1831,-0.1833,-0.1836,-0.189,-0.1898,-0.1904,0,0,0,0,0,-0.2014,-0.2031,-0.2014,-0.2009,-0.1976,-0.1964,-0.196,-0.1926,-0.1907,-0.1913,-0.1889,-0.1861,-0.1845,-0.1832,-0.1828,-0.1845,-0.1829,-0.1832,-0.1835,-0.1887,-0.1896,-0.1904,0,0,0,0,0,0,-0.2072,-0.2026,-0.2006,-0.2012,-0.1992,-0.1954,-0.1962,-0.1937,-0.1923,-0.1919,-0.1878,-0.1871,-0.1878,-0.1861,-0.1847,-0.1863,-0.1833,-0.1836,-0.1874,-0.1882,-0.1889,-0.1894,-0.1802,0,0,0,0,0,-0.2085,-0.2079,-0.2039,-0.2048,-0.204,-0.2003,-0.1996,-0.1972,-0.1951,-0.1943,-0.1918,-0.1899,-0.189,-0.1885,-0.1874,-0.1887,-0.188,-0.1897,-0.1904,-0.1909,-0.1913,-0.192,-0.1928,-0.1847,-0.1847,-0.1847,0,0,-0.2113,-0.2087,-0.2086,-0.2059,-0.2042,-0.2037,-0.1996,-0.1993,-0.199,-0.1942,-0.1942,-0.1923,-0.1899,-0.1907,-0.1909,-0.1893,-0.1933,-0.1913,-0.1918,-0.1918,-0.1924,-0.1932,-0.1939,-0.1849,-0.1849,-0.1848,0,0,-0.2162,-0.2141,-0.2147,-0.213,-0.2103,-0.2078,-0.208,-0.2046,-0.2032,-0.2031,-0.1995,-0.1991,-0.1976,-0.1961,-0.1951,-0.1995,-0.1969,-0.1992,-0.2029,-0.2037,-0.2043,-0.2049,-0.2066,-0.2073,-0.1995,-0.1995,-0.1995,0,-0.22,-0.2191,-0.2153,-0.2153,-0.2143,-0.2099,-0.2106,-0.2091,-0.2063,-0.2058,-0.204,-0.2021,-0.2001,-0.2006,-0.2017,-0.2009,-0.2011,-0.1997,-0.2045,-0.205,-0.2055,-0.2071,-0.2078,-0.1998,-0.1998,-0.1998,-0.1997,0,-0.2241,-0.2235,-0.2244,-0.2217,-0.2208,-0.2211,-0.2175,-0.2171,-0.2147,-0.2125,-0.2125,-0.21,-0.2085,-0.2083,-0.206,-0.2085,-0.2076,-0.2052,-0.2022,-0.2066,-0.2081,-0.2087,-0.2003,-0.2002,-0.2001,-0.2,0,0,-0.2326,-0.2278,-0.2282,-0.227,-0.2238,-0.2233,-0.2235,-0.2219,-0.2217,-0.2199,-0.22,-0.2188,-0.2166,-0.2155,-0.213,-0.2137,-0.2176,-0.2112,-0.2111,-0.2127,-0.2204,-0.2224,-0.2232,-0.2158,-0.2159,-0.2159,-0.2206,0,-0.2371,-0.237,-0.2337,-0.2347,-0.2342,-0.23,-0.2302,-0.2283,-0.2262,-0.2256,-0.2232,-0.2226,-0.2196,-0.2189,-0.2193,-0.217,-0.2191,-0.2166,-0.2161,-0.2161,-0.217,-0.2239,-0.226,-0.2305,-0.2212,-0.2213,-0.2213,0,-0.2423,-0.2408,-0.2418,-0.2386,-0.2383,-0.2385,-0.2368,-0.2362,-0.234,-0.2324,-0.2312,-0.2284,-0.2284,-0.2254,-0.2255,-0.2239,-0.2235,-0.2223,-0.2224,-0.2224,-0.2192,-0.2243,-0.2319,-0.2327,-0.2222,-0.2221,-0.222,0,-0.2487,-0.2469,-0.2473,-0.2464,-0.2426,-0.2429,-0.2413,-0.239,-0.2383,-0.2368,-0.2364,-0.2349,-0.2342,-0.2332,-0.2301,-0.2282,-0.2307,-0.2274,-0.2296,-0.2297,-0.2305,-0.2305,-0.2383,-0.2298,-0.2298,-0.2298,-0.2298,0,-0.2542,-0.2551,-0.2501,-0.2504,-0.2512,-0.2473,-0.2483,-0.2463,-0.2443,-0.2442,-0.2404,-0.2404,-0.2361,-0.2357,-0.2332,-0.2338,-0.2335,-0.2323,-0.2317,-0.2328,-0.233,-0.2326,-0.2323,-0.2299,-0.2299,-0.2299,-0.2298,0,-0.2616,-0.2583,-0.2585,-0.2549,-0.2541,-0.2549,-0.2518,-0.252,-0.2496,-0.2495,-0.2493,-0.2456,-0.2449,-0.2416,-0.2401,-0.2385,-0.24,-0.2386,-0.2408,-0.2404,-0.2429,-0.2428,-0.251,-0.2519,-0.2426,-0.2427,-0.2427,0,-0.2655,-0.266,-0.2625,-0.2622,-0.2608,-0.2602,-0.2595,-0.2557,-0.2551,-0.2527,-0.2532,-0.2521,-0.2511,-0.2502,-0.2474,-0.2463,-0.245,-0.2479,-0.2448,-0.246,-0.2453,-0.2455,-0.2456,-0.2487,-0.2488,-0.2489,-0.249,0,-0.2728,-0.2712,-0.2702,-0.2688,-0.268,-0.2667,-0.2651,-0.2651,-0.2609,-0.2604,-0.2596,-0.2588,-0.2573,-0.2564,-0.2548,-0.2533,-0.2506,-0.25,-0.2505,-0.2517,-0.2531,-0.2526,-0.2429,-0.2499,-0.2498,-0.2497,-0.2497,-0.2496,-0.2787,-0.279,-0.2767,-0.2758,-0.2742,-0.2729,-0.2729,-0.2705,-0.2698,-0.2683,-0.266,-0.2656,-0.2634,-0.261,-0.2597,-0.2594,-0.2578,-0.2584,-0.2586,-0.2589,-0.2596,-0.2529,-0.259,-0.259,-0.259,-0.2589,-0.2589,0,-0.286,-0.2843,-0.2835,-0.2815,-0.2808,-0.2781,-0.2763,-0.276,-0.2756,-0.2738,-0.2729,-0.272,-0.2711,-0.2683,-0.2672,-0.2675,-0.2662,-0.2673,-0.2674,-0.2671,-0.2609,-0.2608,-0.2684,-0.2684,-0.2684,-0.2684,-0.2684,-0.2684,-0.2898,-0.2903,-0.2884,-0.2881,-0.2863,-0.2858,-0.2851,-0.2839,-0.2824,-0.2816,-0.2809,-0.279,-0.2768,-0.2755,-0.2746,-0.2738,-0.2736,-0.2753,-0.2741,-0.2684,-0.2675,-0.2667,-0.2665,-0.2752,-0.2752,-0.2803,-0.2803,-0.2804]}]]